sat.trackr.live / text

‹ back to catalog

GMS-T

NORAD 47346 · 2021-004A

PAYLOAD ACTIVE UNKNOWN

§ Identity

Operator
Country
GER
Launch date
2021-01-20
Launch site
RLLB
Launch vehicle
Mass (kg)
RCS (m²)

External: N2YO · Heavens-Above · Gunter

§ Orbital elements

Epoch: 2026-09-15T19:46:23.280384Z

Period
109.37 min
Inclination
90.1280°
Eccentricity
0.0003821
Mean motion
13.16659193 rev/d
Perigee alt
1,194.6 km
Apogee alt
1,200.4 km
Semi-major
7,575.6 km
B*
-1.3370e-5
RAAN
242.9367°
Arg perigee
126.8552°
Mean anomaly
233.2931°
Rev number
27,152

§ Raw data

GMS-T1 47346U 21004A   26258.82388056  .00000003  00000+0 -13370-4 0  99952 47346  90.1280 242.9367 0003821 126.8552 233.2931 13.16659193271526

JSON: /api/v1/satellites/47346 · /tle

For live sub-satellite position, see the globe view (requires WebGL).

§ Visibility from observer

Set your observer location to see the next 7 days of passes ≥ 10°. The values pass through the URL so the page stays shareable.

No JS? Fill the form by hand. The geolocation button needs JavaScript.